Location: Goettingen
(51.5300°N, 9.9433°E)
Time: 22:52:01
(UTC+02:00)

ISS - Pass Details

Date: 22 July 2021
Orbit: 419 x 421 km, 51.6° (Epoch: 28 July)

Event Time Altitude Azimuth Distance (km) Brightness Sun altitude
Rises 23:51:05 0° 282° (WNW) 2,373 0.6 -15.4°
Reaches altitude 10° 23:53:12 10° 279° (W) 1,506 -0.5 -15.5°
Maximum altitude 23:56:32 59° 200° (SSW) 491 -3.7 -15.7°
Enters shadow 23:57:35 38° 138° (SE) 663 -3.3 -15.8°
